Weather in Duque de Caxias

Brazil     22˚47′14″S   43˚18′46″W
temp.,
°C
wind,
m/s
gust,
m/s
humid.,
%
clouds,
%
prec.,
mm/h
press.,
hPa
HPBL,
m
16 january, sat
sat1600:00+26˚ne1271100 0.0 1014247
03:00+25˚n1170100 0.0 1011187
06:00+25˚nne1270100 0.0 1013190
09:00+31˚n024881 0.0 1014744
12:00+35˚e13370 0.1 10131755
15:00+35˚ese323915 0.5 10111757
18:00+31˚ene355515 0.4 1011693
21:00+28˚n13638 0.4 1013260
17 january, sun
sun1700:00+26˚nne126565 0.0 1012194
03:00+26˚n116681 0.0 1011188
06:00+25˚nne126850 0.0 1012221
09:00+31˚nnw354739 0.0 10131093
12:00+36˚nnw233434 0.0 10121599
15:00+38˚n123131 0.0 10091992
18:00+32˚nnw344626 0.0 1010756
21:00+29˚nnw235463 0.0 1012294
18 january, mon
mon1800:00+27˚n1256100 0.0 1012193
03:00+26˚n1262100 0.0 1011219
06:00+25˚n136255 0.0 1011236
09:00+32˚nnw244351 0.0 1012985
12:00+37˚nnw34272 0.0 10121706
15:00+39˚nw222514 0.0 10102101
18:00+34˚sw01367 0.0 10101018
21:00+30˚nw124948 0.0 1012261
19 january, tue
tue1900:00+28˚nnw235258 0.0 1012223
03:00+27˚nnw125868 0.0 1011180
06:00+26˚nnw1164100 0.0 1012148
09:00+33˚nnw124198 0.0 1014768
12:00+38˚nnw1225100 0.0 10132026
15:00+37˚se1128100 0.0 10112321
18:00+32˚se3550100 0.0 1011672
21:00+29˚wnw2359100 0.0 1013387
20 january, wed
wed2000:00+27˚wnw246599 0.0 1013252
03:00+26˚nnw126499 0.1 1012202
06:00+26˚n1166100 0.1 1013169
09:00+32˚nne024694 0.1 1014833
12:00+37˚nnw132996 0.0 10122063
15:00+38˚s012798 0.0 10102425
18:00+32˚se444999 0.0 1011704
21:00+29˚wnw236066 0.1 1013297